Location: Bennemühlen
(52.5740°N, 9.7135°E)
Time: 02:05:47
(UTC+00:00)

Vanguard 2 Rocket - Pass Details

Date: 24 February 2026
Orbit: 553 x 3287 km, 32.9° (Epoch: 5 March)

Event Time Altitude Azimuth Distance (km) Brightness Sun altitude
Rises 09:12:15 0° 214° (SSW) 6,916 11.6 21.0°
Reaches altitude 10° 09:17:43 10° 204° (SSW) 6,101 11.6 21.5°
Maximum altitude 09:32:48 29° 155° (SSE) 4,752 13.1 22.8°
Drops below altitude 10° 09:46:32 10° 105° (ESE) 5,571 11.7 23.9°
Sets 09:51:09 0° 95° (E) 6,252 11.6 24.2°
